Location: Sassari
(40.7270°N, 8.5600°E)
Time: 05:24:40
(UTC+01:00)

ISS - Visible Passes

Search period start: 20 January 2019 00:00
Search period end: 30 January 2019 00:00
Orbit: 404 x 410 km, 51.6° (Epoch: 20 January)

Date Brightness Start Highest point End Pass type
(mag) Time Alt. Az. Time Alt. Az. Time Alt. Az.
20 Jan -1.4 19:33:52 10° SSW 19:34:52 17° SSW 19:34:52 17° SSW visible
21 Jan -2.2 18:43:15 10° S 18:45:44 20° SE 18:46:04 19° ESE visible
22 Jan -3.1 19:27:20 10° SW 19:29:55 52° WSW 19:29:55 52° WSW visible
23 Jan -3.5 18:36:05 10° SW 18:39:17 50° SE 18:40:56 24° ENE visible
23 Jan -0.5 20:13:11 10° W 20:13:40 13° WNW 20:13:40 13° WNW visible
24 Jan -2.7 19:21:22 10° W 19:24:27 37° NNW 19:24:36 36° NNW visible
25 Jan -3.5 18:29:42 10° WSW 18:32:58 63° NW 18:35:27 16° NE visible
25 Jan -0.6 20:07:48 10° WNW 20:08:10 12° NW 20:08:10 12° NW visible
26 Jan -1.9 19:15:44 10° WNW 19:18:22 21° NNW 19:18:57 20° N visible
27 Jan -2.3 18:23:48 10° W 18:26:46 30° NNW 18:29:41 10° NE visible
28 Jan -1.5 19:10:19 10° NW 19:12:21 15° NNW 19:13:05 14° N visible
29 Jan -1.7 18:18:12 10° WNW 18:20:39 19° NNW 18:23:06 10° NNE visible
